Location: Newark
(31.5350°N, 35.0986°E)
Time: 01:58:16
(UTC+00:00)

Vanguard 1 - Pass Details

Date: 01 October 2019
Orbit: 653 x 3830 km, 34.3° (Epoch: 14 October)

Event Time Altitude Azimuth Distance (km) Brightness Sun altitude
Rises 18:45:39 0° 216° (SW) 5,401 13.9 -42.3°
Reaches altitude 10° 18:48:46 10° 211° (SSW) 4,756 13.5 -42.9°
Enters shadow 18:53:59 29° 196° (SSW) 3,945 12.9 -43.9°
Maximum altitude 19:02:55 51° 140° (SE) 3,713 - -45.5°
Drops below altitude 10° 19:24:16 10° 73° (ENE) 6,933 - -49.3°
Exits shadow 19:26:56 - 71° (ENE) 7,411 14.3 -49.7°
Sets 19:29:59 0° 69° (ENE) 7,951 14.5 -50.2°
